Temp
-14 -13 -13 -13 -13 -13 -12 -13 -13 -13 -12 -12 -12 -12 -12 -12 -12 -12 -11 -11 -11 -10 -11 -11 -11 -11 -11 -11 -12 -12 -12 -12 -12 -12 -12 -12 -12 -13 -13 -13 -14 -14 -14 -14 -14 -13 -13 -13 -12 -12 -11 -11 -11 -10
-15 -14 -14 -13 -13 -13 -13 -13 -13 -13 -13 -13 -13 -13 -13 -12 -12 -12 -12 -12 -11 -11 -11 -11 -11 -12 -11 -12 -12 -12 -12 -12 -12 -12 -12 -12 -12 -12 -13 -13 -14 -14 -14 -14 -14 -13 -14 -14 -13 -12 -12 -11 -11 -10
-15 -16 -16 -15 -14 -14 -14 -14 -13 -13 -13 -13 -13 -13 -13 -13 -13 -13 -13 -12 -12 -12 -12 -11 -12 -12 -12 -12 -12 -12 -13 -13 -13 -12 -12 -12 -12 -13 -13 -13 -13 -14 -14 -14 -14 -14 -14 -15 -15 -14 -13 -12 -11 -11
-16 -15 -16 -16 -16 -15 -15 -15 -14 -13 -13 -13 -13 -13 -13 -13 -13 -13 -13 -13 -13 -13 -12 -12 -12 -12 -13 -13 -13 -13 -13 -13 -13 -13 -13 -12 -13 -13 -13 -13 -13 -13 -14 -14 -14 -14 -15 -15 -15 -14 -14 -13 -12 -12
-15 -17 -16 -16 -16 -16 -16 -16 -15 -14 -14 -14 -14 -14 -14 -14 -14 -13 -14 -14 -13 -13 -13 -13 -13 -13 -13 -13 -14 -14 -14 -14 -13 -13 -13 -13 -13 -14 -13 -13 -13 -14 -15 -15 -15 -16 -16 -16 -16 -15 -14 -14 -13 -12
-19 -18 -17 -17 -16 -16 -17 -16 -16 -16 -16 -15 -15 -14 -14 -14 -14 -14 -14 -14 -14 -14 -14 -14 -14 -15 -14 -14 -14 -14 -14 -14 -14 -14 -13 -14 -14 -15 -14 -13 -13 -14 -15 -16 -16 -16 -16 -16 -16 -16 -15 -15 -14 -13
-20 -19 -19 -19 -19 -19 -17 -17 -17 -16 -16 -16 -16 -15 -16 -15 -15 -15 -15 -14 -14 -14 -14 -15 -15 -15 -16 -15 -15 -15 -15 -15 -14 -14 -14 -14 -15 -15 -14 -13 -14 -14 -15 -15 -16 -16 -16 -16 -16 -16 -15 -15 -14 -13
-21 -20 -20 -19 -19 -19 -19 -18 -18 -17 -16 -16 -16 -16 -16 -16 -16 -16 -16 -16 -15 -15 -15 -15 -15 -16 -17 -16 -16 -16 -16 -15 -15 -15 -15 -15 -15 -15 -14 -14 -14 -15 -15 -16 -16 -16 -15 -16 -16 -15 -16 -15 -15 -14
-22 -20 -20 -20 -20 -20 -20 -19 -19 -19 -18 -17 -17 -16 -16 -16 -17 -17 -17 -16 -16 -16 -15 -15 -16 -17 -17 -17 -17 -16 -16 -15 -15 -15 -16 -15 -15 -15 -15 -15 -15 -15 -15 -16 -16 -16 -15 -15 -15 -15 -15 -16 -14 -15
-23 -21 -21 -21 -20 -20 -20 -19 -20 -20 -20 -20 -19 -17 -17 -17 -17 -17 -17 -17 -17 -16 -15 -16 -17 -17 -17 -18 -17 -17 -16 -16 -16 -16 -16 -15 -15 -15 -15 -15 -15 -16 -16 -15 -16 -16 -16 -15 -15 -15 -16 -15 -16 -14
-24 -22 -22 -21 -21 -21 -20 -20 -20 -20 -20 -19 -19 -19 -18 -18 -18 -18 -18 -18 -17 -17 -17 -17 -17 -18 -18 -18 -18 -17 -17 -17 -16 -16 -16 -15 -15 -16 -16 -16 -16 -16 -16 -16 -16 -16 -16 -16 -16 -15 -15 -15 -15 -16
-25 -23 -22 -22 -21 -21 -21 -20 -21 -20 -20 -20 -20 -20 -20 -19 -19 -19 -19 -18 -18 -18 -17 -18 -18 -18 -18 -19 -18 -18 -18 -17 -17 -17 -16 -16 -16 -17 -17 -17 -17 -16 -16 -17 -16 -16 -16 -16 -16 -16 -15 -15 -15 -15
-25 -23 -23 -22 -22 -21 -21 -21 -21 -21 -20 -21 -20 -20 -20 -20 -20 -20 -19 -19 -19 -18 -18 -19 -19 -19 -19 -19 -19 -18 -18 -18 -18 -17 -16 -17 -18 -17 -17 -17 -17 -17 -17 -16 -16 -16 -16 -16 -16 -16 -16 -16 -16 -15
-26 -24 -23 -23 -22 -21 -21 -21 -21 -21 -21 -21 -21 -21 -20 -20 -20 -19 -20 -20 -19 -19 -19 -19 -19 -19 -19 -19 -19 -19 -18 -18 -18 -17 -18 -18 -18 -18 -18 -18 -17 -17 -17 -17 -17 -17 -17 -17 -16 -16 -16 -17 -16 -15
-26 -25 -23 -23 -23 -22 -21 -21 -21 -21 -21 -21 -21 -21 -20 -20 -20 -20 -20 -20 -20 -20 -19 -19 -20 -20 -20 -20 -19 -19 -19 -18 -18 -19 -18 -18 -18 -18 -18 -18 -18 -18 -18 -18 -17 -17 -17 -17 -17 -17 -17 -16 -17 -16
-26 -26 -23 -23 -23 -22 -22 -21 -21 -21 -21 -21 -21 -21 -21 -21 -20 -21 -21 -20 -20 -20 -20 -20 -20 -20 -20 -20 -19 -19 -19 -20 -19 -19 -18 -19 -19 -19 -19 -19 -18 -18 -18 -18 -18 -18 -18 -18 -18 -18 -17 -17 -16 -17
-25 -24 -22 -22 -22 -22 -21 -21 -21 -21 -22 -21 -21 -21 -21 -21 -21 -21 -21 -21 -21 -21 -21 -21 -21 -21 -20 -20 -20 -20 -20 -19 -19 -19 -19 -20 -20 -20 -20 -19 -19 -19 -19 -19 -19 -19 -19 -18 -19 -19 -19 -18 -17 -17
-24 -23 -22 -22 -22 -22 -21 -22 -22 -22 -22 -21 -21 -21 -21 -22 -22 -21 -21 -21 -21 -21 -21 -21 -21 -20 -20 -21 -21 -20 -19 -19 -19 -20 -20 -20 -21 -21 -20 -20 -20 -20 -20 -20 -20 -20 -20 -19 -19 -19 -19 -18 -18 -18
-27 -24 -22 -22 -22 -22 -22 -22 -22 -22 -22 -22 -22 -22 -22 -22 -22 -22 -22 -22 -22 -21 -21 -20 -20 -21 -21 -21 -20 -20 -19 -20 -20 -20 -21 -22 -22 -21 -21 -20 -21 -22 -22 -21 -22 -21 -21 -21 -20 -19 -19 -18 -18 -18
-26 -25 -24 -24 -23 -23 -23 -23 -23 -22 -22 -22 -22 -23 -22 -22 -22 -22 -22 -22 -22 -21 -21 -21 -23 -22 -21 -20 -20 -21 -21 -21 -21 -22 -22 -22 -21 -22 -22 -22 -22 -22 -22 -22 -22 -21 -21 -21 -21 -20 -19 -19 -19 -18
-26 -25 -25 -24 -24 -24 -23 -23 -23 -23 -23 -23 -23 -23 -23 -23 -23 -22 -22 -22 -22 -21 -22 -24 -23 -22 -21 -21 -21 -21 -21 -22 -22 -22 -22 -23 -23 -23 -23 -23 -23 -23 -23 -22 -22 -22 -21 -21 -21 -20 -20 -19 -19 -19
-25 -24 -24 -24 -24 -24 -24 -24 -23 -23 -23 -23 -24 -23 -23 -23 -23 -23 -23 -22 -22 -22 -23 -24 -23 -22 -21 -22 -22 -21 -22 -22 -22 -22 -23 -24 -24 -24 -24 -24 -24 -24 -23 -23 -22 -22 -22 -22 -21 -21 -20 -19 -19 -18
-25 -24 -25 -25 -25 -24 -24 -24 -24 -24 -24 -24 -24 -24 -24 -24 -23 -23 -22 -22 -22 -24 -24 -23 -22 -22 -22 -22 -22 -22 -22 -22 -23 -23 -24 -24 -24 -24 -24 -24 -24 -24 -23 -23 -23 -23 -22 -22 -22 -21 -21 -20 -19 -19
-25 -25 -25 -25 -25 -24 -24 -24 -24 -24 -24 -24 -24 -24 -24 -24 -23 -23 -22 -22 -24 -24 -23 -23 -23 -23 -23 -23 -23 -23 -23 -23 -24 -24 -25 -25 -25 -25 -25 -24 -24 -24 -24 -24 -23 -23 -22 -22 -21 -21 -21 -20 -20 -20
-26 -26 -26 -25 -24 -24 -24 -24 -24 -24 -24 -24 -24 -24 -24 -24 -24 -23 -23 -23 -25 -24 -24 -23 -23 -23 -23 -23 -23 -24 -24 -24 -24 -25 -25 -25 -25 -25 -25 -24 -24 -24 -24 -24 -24 -23 -23 -22 -22 -21 -21 -20 -20 -20
-27 -26 -26 -26 -25 -25 -25 -25 -25 -25 -25 -25 -25 -25 -25 -25 -24 -24 -23 -24 -24 -24 -24 -24 -24 -24 -24 -24 -24 -24 -24 -24 -25 -25 -25 -25 -25 -25 -25 -24 -24 -24 -25 -25 -24 -24 -24 -23 -23 -23 -22 -21 -20 -20
-27 -26 -27 -26 -26 -26 -26 -25 -26 -26 -26 -25 -25 -25 -25 -25 -25 -24 -24 -24 -25 -25 -24 -24 -24 -24 -24 -24 -24 -24 -24 -25 -25 -25 -25 -25 -25 -25 -25 -25 -25 -25 -25 -25 -25 -25 -24 -24 -23 -23 -23 -22 -22 -21
-27 -27 -27 -27 -27 -27 -27 -27 -26 -27 -26 -26 -26 -26 -25 -25 -25 -25 -25 -25 -25 -25 -25 -25 -24 -24 -24 -24 -25 -25 -25 -25 -25 -25 -25 -25 -25 -25 -25 -25 -25 -25 -25 -25 -25 -25 -25 -25 -24 -24 -24 -23 -22 -22
-28 -28 -28 -28 -28 -27 -27 -27 -27 -27 -27 -27 -27 -26 -26 -26 -26 -26 -25 -25 -25 -25 -25 -25 -25 -25 -25 -25 -25 -25 -25 -25 -25 -25 -25 -25 -25 -25 -25 -26 -25 -25 -25 -25 -25 -25 -25 -25 -25 -25 -24 -24 -23 -23
-29 -29 -28 -28 -28 -27 -27 -28 -28 -27 -27 -27 -27 -26 -26 -26 -26 -26 -25 -25 -25 -25 -25 -25 -25 -25 -25 -25 -25 -26 -25 -25 -25 -25 -25 -26 -26 -25 -25 -25 -25 -26 -26 -26 -26 -26 -25 -25 -25 -25 -25 -25 -24 -24
-29 -29 -29 -29 -29 -28 -28 -28 -28 -27 -27 -27 -27 -27 -26 -26 -26 -26 -26 -26 -26 -26 -26 -26 -26 -26 -26 -26 -26 -26 -26 -26 -26 -26 -25 -25 -26 -26 -26 -26 -26 -26 -26 -26 -26 -26 -26 -26 -26 -26 -25 -25 -25 -24
-30 -30 -30 -29 -29 -29 -29 -29 -28 -28 -28 -28 -28 -28 -28 -27 -27 -26 -26 -26 -26 -26 -26 -27 -26 -26 -26 -26 -26 -26 -26 -26 -26 -26 -26 -26 -26 -26 -26 -26 -26 -26 -26 -26 -26 -26 -26 -26 -26 -26 -26 -26 -25 -25
-31 -31 -30 -30 -30 -29 -29 -29 -29 -29 -28 -28 -28 -28 -28 -27 -27 -27 -27 -26 -26 -27 -27 -27 -27 -27 -27 -27 -26 -26 -26 -26 -27 -27 -26 -26 -26 -26 -26 -26 -26 -26 -26 -26 -26 -26 -26 -26 -26 -26 -26 -26 -26 -25
Height
5584 5594 5602 5610 5620 5629 5637 5647 5655 5662 5668 5675 5680 5684 5688 5693 5698 5702 5705 5707 5709 5712 5713 5714 5717 5719 5720 5723 5725 5727 5728 5727 5729 5730 5731 5733 5734 5736 5737 5739 5742 5746 5746 5750 5751 5753 5755 5762 5764 5765 5767 5766 5768 5772
5557 5570 5579 5588 5599 5609 5618 5627 5636 5643 5649 5657 5663 5669 5673 5678 5683 5689 5692 5694 5697 5698 5701 5701 5703 5706 5709 5711 5713 5715 5718 5719 5719 5720 5722 5723 5724 5724 5727 5727 5731 5733 5736 5738 5739 5745 5746 5749 5752 5751 5754 5758 5760 5763
5538 5548 5559 5568 5578 5590 5599 5607 5616 5623 5631 5639 5645 5651 5656 5662 5667 5674 5678 5681 5684 5687 5687 5689 5691 5694 5696 5698 5701 5704 5706 5709 5710 5710 5710 5711 5710 5715 5717 5720 5720 5722 5724 5724 5728 5736 5737 5738 5741 5742 5743 5748 5751 5753
5511 5523 5538 5551 5559 5569 5578 5586 5596 5604 5611 5620 5626 5632 5638 5643 5650 5656 5661 5666 5669 5673 5675 5677 5677 5681 5683 5686 5689 5692 5695 5697 5698 5699 5699 5699 5700 5702 5706 5708 5711 5711 5712 5714 5718 5724 5723 5723 5726 5728 5730 5735 5738 5742
5488 5498 5512 5529 5543 5552 5561 5568 5577 5583 5591 5598 5605 5612 5619 5627 5633 5639 5643 5648 5652 5657 5662 5664 5665 5669 5672 5674 5676 5679 5682 5684 5686 5687 5685 5684 5685 5691 5694 5697 5700 5701 5701 5701 5703 5704 5704 5710 5709 5713 5716 5719 5724 5728
5464 5477 5489 5502 5516 5529 5540 5551 5559 5566 5571 5579 5586 5592 5600 5609 5616 5623 5627 5632 5636 5640 5646 5649 5653 5656 5658 5661 5663 5666 5669 5672 5673 5674 5673 5673 5677 5679 5683 5688 5691 5690 5684 5684 5685 5685 5688 5695 5697 5696 5698 5702 5708 5713
5448 5459 5471 5483 5497 5509 5518 5529 5538 5545 5554 5561 5566 5574 5581 5589 5598 5604 5613 5618 5619 5624 5630 5632 5637 5641 5646 5650 5653 5655 5656 5659 5660 5660 5659 5663 5666 5666 5669 5676 5681 5671 5672 5672 5673 5671 5674 5679 5681 5683 5687 5691 5694 5700
5434 5444 5460 5470 5482 5493 5502 5511 5516 5520 5533 5540 5545 5553 5563 5573 5581 5588 5595 5599 5603 5610 5614 5617 5622 5628 5633 5638 5641 5643 5644 5646 5647 5648 5650 5653 5654 5654 5655 5665 5664 5660 5659 5660 5660 5657 5659 5663 5668 5672 5674 5678 5680 5686
5422 5433 5443 5455 5465 5478 5486 5494 5500 5500 5508 5516 5524 5535 5548 5558 5566 5572 5577 5582 5588 5597 5599 5604 5610 5616 5619 5624 5629 5631 5632 5633 5635 5637 5640 5641 5641 5644 5649 5649 5648 5645 5644 5647 5646 5645 5645 5648 5654 5659 5660 5664 5667 5672
5403 5417 5426 5438 5450 5464 5474 5481 5484 5488 5491 5499 5511 5521 5533 5543 5549 5556 5561 5566 5572 5577 5584 5591 5596 5602 5608 5612 5614 5618 5619 5620 5622 5626 5626 5629 5632 5633 5633 5634 5633 5632 5629 5631 5633 5634 5633 5634 5637 5641 5646 5648 5654 5659
5386 5398 5410 5423 5437 5449 5459 5466 5470 5475 5483 5494 5500 5509 5518 5524 5533 5540 5545 5552 5556 5563 5572 5579 5585 5590 5594 5599 5602 5603 5605 5607 5609 5613 5614 5618 5621 5620 5619 5618 5618 5617 5615 5616 5618 5620 5620 5620 5622 5625 5631 5636 5637 5641
5371 5383 5395 5410 5425 5435 5444 5451 5459 5468 5481 5489 5496 5500 5506 5511 5517 5524 5530 5539 5549 5556 5562 5569 5574 5578 5582 5585 5588 5592 5594 5596 5598 5602 5603 5605 5608 5605 5605 5604 5605 5606 5603 5602 5604 5604 5605 5606 5607 5610 5615 5620 5623 5625
5356 5368 5382 5398 5411 5421 5431 5441 5450 5459 5470 5478 5481 5485 5494 5498 5503 5514 5525 5536 5543 5550 5554 5558 5562 5564 5568 5572 5577 5580 5582 5585 5587 5588 5591 5594 5593 5592 5591 5590 5590 5592 5591 5589 5588 5589 5590 5591 5591 5594 5599 5603 5606 5610
5342 5354 5370 5386 5398 5408 5420 5430 5441 5454 5464 5466 5472 5477 5481 5488 5501 5514 5523 5528 5532 5536 5538 5544 5549 5554 5558 5563 5567 5570 5572 5574 5575 5577 5582 5579 5578 5578 5579 5579 5577 5578 5577 5575 5574 5574 5575 5576 5576 5578 5583 5588 5592 5597
5331 5342 5357 5371 5384 5398 5411 5423 5437 5446 5452 5457 5463 5469 5478 5488 5497 5504 5510 5515 5519 5522 5528 5534 5540 5546 5549 5553 5558 5559 5562 5563 5565 5568 5568 5568 5569 5570 5569 5568 5566 5565 5564 5561 5560 5559 5560 5561 5562 5564 5568 5573 5579 5582
5323 5331 5343 5359 5375 5389 5402 5415 5425 5434 5441 5448 5456 5465 5473 5480 5489 5495 5499 5503 5509 5514 5519 5526 5531 5537 5542 5546 5548 5550 5553 5555 5556 5556 5557 5558 5557 5556 5554 5553 5553 5551 5550 5549 5546 5545 5546 5547 5548 5550 5554 5559 5564 5570
5315 5322 5339 5355 5372 5385 5398 5411 5419 5425 5433 5442 5452 5459 5466 5473 5480 5485 5490 5496 5502 5509 5515 5519 5524 5529 5534 5537 5540 5542 5544 5545 5546 5547 5546 5545 5542 5541 5542 5541 5539 5537 5537 5536 5534 5533 5533 5534 5537 5539 5542 5546 5551 5557
5313 5323 5336 5351 5367 5381 5392 5399 5407 5416 5427 5439 5445 5452 5459 5467 5473 5479 5485 5491 5497 5502 5507 5513 5517 5520 5524 5528 5531 5533 5534 5535 5535 5533 5532 5531 5530 5529 5530 5530 5527 5524 5523 5523 5523 5523 5523 5523 5527 5529 5532 5536 5540 5545
5312 5322 5342 5358 5370 5379 5385 5392 5403 5413 5424 5431 5436 5444 5452 5459 5466 5472 5478 5485 5490 5495 5500 5504 5507 5511 5516 5518 5519 5521 5523 5523 5523 5524 5522 5519 5518 5518 5516 5516 5516 5514 5513 5513 5513 5512 5514 5514 5516 5519 5522 5526 5529 5532
5315 5329 5341 5352 5362 5370 5378 5390 5401 5410 5415 5423 5430 5438 5446 5453 5460 5466 5472 5478 5483 5487 5491 5496 5499 5503 5506 5509 5511 5512 5512 5512 5512 5512 5510 5508 5507 5508 5505 5504 5504 5503 5503 5502 5503 5503 5505 5505 5507 5508 5511 5515 5518 5520
5318 5325 5332 5346 5359 5370 5378 5386 5394 5402 5408 5416 5424 5432 5440 5447 5453 5459 5465 5470 5476 5482 5485 5488 5490 5494 5497 5499 5500 5502 5503 5504 5502 5501 5500 5499 5497 5495 5494 5493 5493 5493 5494 5492 5492 5493 5495 5497 5499 5500 5501 5504 5507 5510
5318 5329 5340 5349 5358 5365 5374 5383 5391 5398 5406 5413 5420 5427 5434 5440 5445 5450 5457 5463 5469 5476 5476 5479 5482 5485 5488 5490 5491 5493 5495 5495 5493 5492 5491 5490 5489 5487 5485 5485 5484 5483 5483 5483 5482 5483 5484 5485 5488 5491 5493 5495 5496 5499
5323 5331 5339 5346 5353 5362 5371 5379 5386 5394 5401 5408 5414 5420 5426 5432 5438 5444 5450 5457 5464 5465 5467 5470 5474 5478 5480 5481 5484 5485 5485 5486 5484 5482 5482 5481 5480 5479 5477 5477 5477 5475 5473 5474 5474 5474 5474 5475 5478 5482 5484 5486 5487 5490
5324 5331 5334 5340 5348 5356 5366 5375 5383 5391 5395 5401 5407 5414 5420 5426 5432 5436 5445 5451 5454 5455 5459 5462 5466 5469 5471 5473 5475 5476 5476 5476 5474 5473 5473 5472 5470 5470 5470 5470 5469 5468 5466 5465 5465 5466 5466 5466 5468 5471 5475 5477 5478 5481
5320 5324 5331 5337 5347 5358 5364 5372 5379 5386 5391 5396 5401 5407 5413 5419 5423 5430 5438 5444 5446 5449 5452 5455 5459 5461 5463 5465 5466 5466 5466 5466 5464 5464 5464 5463 5462 5462 5462 5462 5462 5461 5459 5457 5457 5456 5457 5457 5457 5459 5463 5466 5468 5471
5317 5324 5332 5338 5344 5354 5361 5368 5374 5380 5385 5389 5394 5399 5405 5411 5416 5423 5431 5436 5437 5440 5444 5447 5450 5453 5455 5456 5457 5456 5456 5456 5456 5455 5453 5452 5451 5452 5453 5454 5454 5454 5453 5452 5450 5449 5449 5450 5451 5451 5452 5455 5458 5460
5317 5324 5331 5337 5344 5351 5358 5364 5369 5372 5376 5381 5386 5392 5396 5401 5407 5417 5423 5425 5428 5431 5434 5438 5440 5443 5445 5446 5446 5446 5445 5445 5445 5444 5443 5442 5442 5443 5444 5445 5446 5446 5446 5445 5443 5442 5441 5441 5441 5443 5443 5444 5446 5448
5315 5321 5326 5333 5338 5344 5351 5354 5358 5363 5367 5373 5378 5382 5387 5394 5403 5408 5411 5414 5417 5421 5424 5427 5430 5433 5434 5435 5436 5436 5436 5436 5435 5435 5434 5434 5434 5435 5436 5437 5437 5438 5438 5437 5436 5436 5435 5434 5433 5432 5433 5434 5436 5437
5311 5316 5321 5326 5330 5336 5342 5347 5352 5356 5361 5364 5368 5373 5378 5385 5391 5394 5398 5403 5406 5410 5413 5416 5419 5421 5424 5425 5425 5425 5425 5425 5426 5426 5426 5426 5426 5426 5428 5428 5429 5430 5430 5429 5428 5428 5427 5427 5426 5425 5424 5424 5424 5425
5310 5313 5318 5323 5329 5334 5337 5341 5345 5348 5351 5355 5359 5365 5370 5375 5379 5384 5389 5392 5396 5399 5402 5406 5408 5410 5412 5414 5414 5414 5415 5415 5416 5417 5417 5416 5416 5417 5418 5419 5420 5420 5419 5419 5418 5418 5418 5417 5416 5416 5416 5415 5414 5414
5302 5306 5309 5314 5320 5325 5330 5332 5335 5338 5341 5346 5351 5357 5361 5365 5370 5375 5379 5382 5386 5389 5392 5394 5396 5399 5401 5402 5402 5402 5403 5405 5406 5406 5407 5407 5407 5407 5407 5407 5408 5408 5407 5408 5408 5407 5407 5406 5405 5405 5404 5404 5403 5403
5294 5298 5303 5308 5313 5316 5318 5321 5324 5329 5334 5339 5343 5347 5351 5355 5361 5366 5370 5371 5375 5379 5380 5381 5384 5385 5387 5389 5390 5391 5391 5391 5393 5394 5395 5396 5396 5396 5397 5397 5397 5397 5396 5396 5395 5395 5394 5394 5393 5392 5391 5391 5391 5391
5285 5289 5293 5298 5303 5308 5312 5314 5316 5319 5324 5329 5334 5337 5341 5346 5354 5360 5361 5364 5366 5365 5366 5369 5371 5372 5374 5376 5376 5376 5376 5377 5378 5379 5381 5382 5382 5383 5383 5383 5383 5383 5383 5382 5382 5381 5380 5380 5380 5379 5379 5378 5377 5375
Wind_Speed
95 92 88 80 82 77 73 67 64 62 57 57 54 51 47 47 46 47 48 45 41 41 44 44 43 43 42 42 41 41 41 41 39 36 37 35 35 35 38 38 39 43 45 42 45 44 39 31 33 37 34 33 33 31
81 87 88 87 88 82 78 73 68 70 68 65 61 58 53 53 52 50 51 49 46 46 46 47 48 45 45 46 45 44 44 43 43 41 40 37 37 35 36 37 37 42 44 47 46 49 43 34 35 40 40 36 35 32
82 71 72 79 84 84 81 81 82 74 69 69 68 63 57 55 57 55 54 54 52 51 51 49 49 50 50 48 48 45 43 45 45 43 42 42 44 36 35 35 35 37 42 48 48 42 44 38 36 40 40 38 38 35
101 87 78 72 69 71 73 74 82 83 76 78 72 70 66 58 61 65 60 60 58 57 55 54 53 52 52 52 50 48 45 45 46 46 46 47 46 42 35 33 35 36 38 43 44 45 44 42 40 43 45 41 42 39
79 74 80 79 80 75 70 69 68 71 77 79 77 75 70 66 68 69 66 64 62 60 59 56 57 55 55 55 52 48 46 45 46 48 50 52 49 40 38 37 35 33 32 38 44 47 50 48 45 46 47 48 46 43
60 61 63 66 70 71 69 67 64 58 59 69 76 76 70 67 69 70 66 66 64 63 62 59 57 55 55 54 51 47 46 45 46 48 50 51 44 42 42 39 34 32 34 35 40 48 54 50 51 49 50 49 49 49
50 51 55 55 60 62 63 67 71 71 63 61 56 68 66 67 68 68 69 67 66 64 62 60 58 57 54 51 48 47 46 46 46 48 50 48 40 41 41 40 30 38 36 36 38 45 51 53 51 55 55 52 52 50
57 59 59 55 63 59 58 60 62 65 71 63 59 60 64 66 62 59 58 60 61 59 59 60 60 55 48 46 48 47 46 47 48 47 46 42 42 42 44 37 35 37 37 36 38 44 48 51 55 47 56 56 55 53
63 67 65 61 53 53 57 64 65 59 60 62 62 64 65 63 59 57 56 56 57 59 60 58 56 52 48 47 48 49 49 49 49 45 41 42 44 42 38 39 40 42 43 39 40 45 50 51 51 57 49 59 59 56
60 74 66 57 62 54 54 58 58 55 50 57 60 64 65 58 56 56 55 56 58 58 59 56 52 49 47 45 46 48 50 51 50 45 44 45 44 41 41 41 43 42 44 45 42 41 45 48 50 54 52 49 61 59
51 78 69 61 67 63 57 58 52 57 55 54 54 57 58 56 55 56 56 56 56 55 53 50 49 44 44 43 43 46 43 43 45 43 39 39 39 41 42 43 42 44 46 44 44 42 42 46 50 53 53 53 52 61
47 64 83 66 67 64 60 60 47 51 46 44 47 48 52 53 54 54 55 54 51 49 47 43 42 39 41 41 40 40 40 39 40 39 40 39 40 41 40 41 42 43 48 44 44 46 45 46 49 52 53 50 55 53
50 63 73 77 68 70 60 54 48 45 39 32 38 46 48 52 53 49 46 45 43 37 34 37 40 40 40 41 40 39 40 39 37 35 34 35 36 39 42 43 40 42 45 44 44 46 46 46 49 50 52 50 51 55
52 63 74 65 66 68 72 59 47 45 39 39 38 42 47 50 47 42 36 35 36 39 41 40 41 40 38 36 37 37 36 35 33 31 29 32 36 39 42 42 41 42 42 42 42 44 47 45 47 49 51 50 47 52
49 57 69 67 59 55 59 52 49 47 41 37 41 41 42 41 39 37 35 34 36 37 38 38 36 33 32 33 33 32 33 33 27 25 28 31 33 36 38 39 40 42 42 42 43 41 44 44 45 47 48 51 51 46
41 45 73 67 56 51 48 51 49 49 46 42 38 37 38 38 36 33 32 33 33 34 36 35 33 31 31 31 30 30 28 23 24 26 28 30 31 34 34 36 39 39 38 38 41 39 41 41 43 44 46 46 45 43
35 44 73 62 54 52 52 58 51 47 46 42 37 36 36 36 32 33 32 30 32 31 30 29 28 28 29 29 26 24 23 24 23 22 26 28 30 32 36 40 40 38 38 35 36 34 38 39 39 40 42 45 42 42
44 49 62 47 57 53 50 51 49 44 44 41 36 35 36 35 33 32 33 33 31 26 26 27 27 27 25 22 22 23 22 21 21 27 33 33 35 35 36 41 38 38 35 32 34 33 33 38 39 38 40 40 41 43
26 53 58 50 47 44 47 53 47 44 42 38 37 38 39 38 35 33 32 31 29 28 27 26 26 22 20 22 23 22 22 23 28 33 33 33 37 37 38 40 34 30 29 30 32 33 33 34 40 37 41 37 36 39
40 50 52 52 52 51 52 52 48 44 42 39 39 39 41 40 36 33 31 31 30 29 28 25 18 21 23 22 22 21 23 28 31 33 34 39 41 39 37 36 32 29 29 32 37 39 37 35 32 41 40 36 34 34
48 51 46 44 41 37 39 43 44 46 42 41 41 42 41 37 36 36 35 35 33 29 23 19 22 22 22 23 21 23 29 32 30 35 39 37 36 37 36 35 32 28 26 27 35 41 36 33 33 26 34 37 36 33
51 51 49 47 43 39 38 40 40 39 40 41 42 41 38 38 36 34 34 36 33 25 21 22 24 26 25 23 23 27 33 39 36 37 37 34 31 34 34 33 31 30 28 26 27 36 39 36 34 30 25 28 29 26
46 47 48 50 49 46 43 39 38 42 42 41 42 41 40 36 34 35 36 31 27 24 25 25 25 26 26 25 28 32 37 38 36 35 33 32 31 29 27 27 27 28 27 27 25 23 25 31 35 33 26 25 24 30
52 48 46 50 56 52 48 42 40 37 34 38 40 43 40 36 32 34 30 24 23 27 27 26 27 27 27 28 30 34 36 35 34 34 33 30 31 29 26 24 23 24 25 25 27 27 24 23 31 33 34 28 23 19
29 34 47 50 49 46 44 42 42 42 36 39 42 40 38 35 36 32 27 26 28 31 31 30 29 27 28 29 31 31 31 33 35 34 33 34 32 28 25 24 24 24 24 23 21 24 26 24 22 30 38 36 30 25
26 28 28 27 33 41 32 37 38 38 38 39 45 43 41 40 38 34 30 32 36 35 33 31 29 28 28 28 27 29 33 35 35 34 35 33 30 27 25 26 26 24 21 20 19 20 21 22 21 21 22 36 42 33
31 30 27 26 28 30 35 37 34 36 39 40 43 47 47 44 42 38 34 35 33 34 34 32 30 29 28 27 27 29 30 29 30 31 28 25 23 22 23 24 23 23 21 17 16 17 18 20 23 24 24 25 27 34
34 33 34 29 29 30 32 40 36 31 36 41 43 46 47 44 37 34 35 36 36 35 33 31 32 30 28 29 31 31 30 28 28 28 25 23 22 21 21 21 21 18 18 22 24 23 21 21 21 23 25 27 27 27
39 36 34 35 33 36 36 33 38 35 35 36 38 40 43 44 41 38 40 40 37 35 35 33 31 30 33 34 35 33 29 26 27 26 24 22 21 22 22 21 19 21 24 24 23 22 21 22 23 25 26 27 29 32
37 39 40 40 37 38 36 35 34 31 32 34 35 38 38 37 41 43 39 36 37 36 35 35 35 35 37 37 35 31 29 27 28 28 27 26 25 25 24 25 27 28 28 27 27 27 27 27 28 27 26 28 31 31
37 37 37 39 41 43 44 45 45 43 41 38 35 32 33 35 37 36 34 36 38 38 39 39 38 38 38 34 32 33 34 35 32 30 31 32 30 31 33 33 32 31 30 29 30 31 31 32 34 33 31 30 30 32
38 40 38 40 42 44 44 43 43 44 43 41 38 39 40 38 37 37 36 38 39 40 39 39 39 41 41 38 37 36 36 38 38 35 34 32 31 34 36 37 38 38 36 35 35 35 36 37 37 38 41 41 37 34
36 38 39 40 39 43 45 47 45 45 46 46 45 44 42 41 38 34 33 34 38 41 39 38 38 41 42 41 39 37 37 39 40 41 39 37 41 42 41 40 42 43 44 44 43 42 41 40 40 42 43 44 45 44
Wind_Direction
248 240 240 245 244 245 253 247 244 247 250 253 249 247 250 249 251 248 246 247 247 251 254 259 262 266 266 269 266 262 259 256 255 258 268 273 277 276 275 270 263 258 254 254 253 256 261 259 251 253 249 248 247 246
238 239 238 244 239 242 248 245 246 247 250 253 249 245 247 248 248 249 247 248 249 250 253 257 261 264 267 268 269 267 264 260 257 258 265 270 275 274 274 272 267 261 259 255 254 248 257 262 253 251 250 246 249 248
227 230 236 244 243 242 243 248 246 245 249 249 249 245 246 249 249 249 249 249 249 251 253 256 261 264 266 269 267 267 265 265 263 261 263 266 269 275 278 276 272 267 261 257 254 254 253 255 254 253 254 248 249 248
259 236 235 240 242 243 242 246 245 242 245 248 244 244 244 249 255 251 248 250 249 251 253 256 258 262 266 269 269 267 265 262 262 262 263 265 268 269 272 273 273 273 264 262 260 255 256 252 243 246 249 246 244 247
247 249 253 245 242 246 242 245 242 242 239 238 239 241 243 248 251 250 247 248 249 252 254 256 258 260 264 267 269 267 265 264 264 263 264 263 263 266 265 269 277 278 275 261 257 252 250 254 243 240 243 245 243 243
236 239 238 239 248 240 240 238 239 248 243 243 242 239 241 243 248 249 247 250 250 252 254 253 258 259 262 263 264 263 264 264 262 263 264 265 265 265 268 274 276 274 264 262 256 251 248 247 251 239 240 241 240 241
224 218 219 218 217 224 227 233 239 244 238 233 241 238 237 241 245 248 247 249 249 249 250 252 256 256 258 261 263 261 259 258 259 261 263 265 265 266 268 274 273 267 263 264 264 260 252 247 249 245 236 239 240 238
210 203 206 214 212 215 227 228 225 225 228 236 238 235 235 238 242 243 242 242 244 248 249 251 255 253 253 254 255 255 255 256 258 262 264 265 266 266 270 273 266 265 266 264 261 260 260 250 245 252 242 240 239 237
216 205 208 208 213 220 225 222 218 216 216 220 224 230 231 233 238 240 238 240 243 245 249 252 254 248 248 249 251 253 255 257 261 262 264 266 268 274 275 267 264 263 260 261 260 260 260 259 253 248 253 239 241 238
224 209 207 209 205 217 215 216 224 225 229 221 219 224 227 227 228 231 234 236 239 243 247 246 245 246 248 248 249 252 256 259 263 264 265 269 277 272 269 265 259 261 263 261 261 263 263 260 257 249 245 250 238 243
226 214 212 207 209 217 222 223 227 226 226 225 223 221 219 219 222 226 228 230 236 239 244 245 242 243 244 247 249 250 253 258 261 263 263 272 274 268 262 260 261 262 266 267 263 261 259 260 257 255 248 246 246 237
224 218 220 212 211 221 218 216 216 224 227 229 226 226 225 221 222 226 227 229 234 238 240 242 241 239 242 242 246 250 250 255 259 265 268 272 261 258 256 258 261 259 263 265 261 261 260 257 257 254 251 248 244 247
218 212 212 216 215 214 216 219 217 217 214 216 223 223 224 225 225 227 228 230 235 242 245 240 235 233 235 240 245 249 252 258 263 263 267 263 259 254 253 254 257 260 263 267 266 264 262 259 255 254 249 250 248 244
213 208 200 208 211 216 214 215 211 209 218 226 229 227 224 225 226 227 234 235 233 233 232 234 232 232 237 242 247 251 253 253 255 259 258 257 256 257 257 260 261 262 265 268 270 270 268 261 254 252 247 244 245 243
210 211 207 200 201 203 208 212 210 219 216 225 228 229 226 224 223 226 228 226 222 221 221 222 224 227 230 236 241 245 248 251 257 257 255 258 263 266 269 271 271 270 272 272 268 267 266 264 257 251 248 245 246 248
206 200 205 200 201 199 205 208 216 217 221 229 229 228 222 219 218 220 217 218 219 217 217 218 218 223 230 235 239 244 251 254 253 260 270 272 270 272 276 277 277 276 280 279 271 268 263 261 257 251 248 241 245 251
181 198 195 197 196 202 208 213 213 213 217 221 224 222 218 214 212 214 213 211 212 215 214 214 220 230 236 243 250 254 256 257 265 278 288 286 282 281 281 281 280 280 281 281 275 268 261 258 256 251 246 240 240 244
177 187 196 188 184 193 193 204 214 216 216 216 217 217 213 209 211 216 214 213 210 212 220 226 230 234 238 243 247 248 258 273 291 304 306 296 284 280 283 286 286 284 281 278 275 265 257 254 250 251 242 244 246 245
166 178 182 191 192 203 207 213 212 213 208 209 206 207 207 208 212 212 212 213 217 221 224 228 235 242 244 245 253 264 273 285 300 303 295 287 284 286 285 284 286 281 283 271 267 259 257 257 245 250 245 239 243 245
181 174 177 187 196 203 211 210 207 206 202 201 201 201 208 213 215 216 217 221 223 224 225 236 239 239 244 248 259 270 283 291 296 299 291 288 287 285 285 286 287 283 280 263 258 257 259 259 257 250 244 241 245 249
182 185 181 182 187 196 199 200 200 199 198 200 205 207 209 213 214 218 221 225 229 230 231 226 234 242 248 261 270 281 292 291 295 294 289 284 282 283 285 288 289 283 279 276 259 257 264 257 251 254 258 258 261 259
189 186 184 188 196 199 197 197 200 204 209 210 214 215 215 215 219 222 220 226 232 230 228 228 238 246 255 263 272 281 287 290 292 288 285 283 282 281 283 285 287 288 281 283 272 256 263 260 244 251 252 248 248 244
190 190 191 195 200 200 198 198 204 208 214 217 218 217 217 220 224 223 226 228 223 223 225 233 244 257 261 267 273 279 282 286 285 283 283 286 285 288 286 285 290 290 287 273 274 274 268 260 256 256 253 249 241 244
190 199 198 196 201 204 205 205 204 208 216 217 216 218 219 221 225 225 220 219 217 221 230 238 249 255 262 268 273 279 283 282 283 280 280 291 287 288 284 283 290 296 296 286 267 267 273 268 261 254 244 246 236 244
184 201 201 203 205 207 208 206 213 220 225 222 222 222 224 226 228 229 217 220 220 227 234 244 249 254 260 267 273 276 280 282 281 282 282 284 290 284 278 281 290 298 299 294 283 268 266 274 271 265 251 247 245 240
194 197 203 199 211 210 202 213 218 219 220 223 224 227 228 230 231 225 223 230 228 230 236 243 249 253 258 262 271 279 278 277 280 282 284 287 284 278 277 280 288 295 295 293 293 286 274 267 267 268 266 255 246 241
199 200 200 206 208 206 215 221 224 225 226 229 224 224 225 229 232 235 236 232 229 234 238 241 247 252 258 267 274 278 276 274 279 285 288 284 278 276 279 284 288 292 293 297 301 298 292 282 269 262 261 262 261 260
191 186 184 187 195 201 214 212 208 216 225 224 224 225 226 229 230 228 223 224 228 232 237 244 252 258 262 265 266 264 267 275 281 284 281 275 271 272 276 278 281 279 291 298 300 301 300 298 291 280 267 259 257 257
203 196 193 194 199 199 199 202 202 201 205 208 214 219 225 227 224 223 226 230 234 237 242 248 256 261 259 260 260 259 264 272 274 274 275 275 278 276 273 268 268 283 290 290 290 292 295 298 294 290 286 276 264 257
219 224 226 226 222 208 210 221 225 228 227 223 223 220 219 219 219 223 223 228 233 238 245 253 259 255 251 255 258 261 263 265 266 272 277 281 278 273 267 268 274 280 282 282 285 291 298 303 303 296 289 284 279 271
230 227 226 225 225 225 228 232 234 237 239 239 237 231 230 232 235 234 237 238 239 241 247 251 251 248 250 255 260 261 262 261 261 265 267 268 272 274 272 270 273 279 282 283 285 287 293 301 306 305 300 290 281 276
233 232 232 228 220 219 219 223 226 228 226 224 226 224 226 227 226 228 232 237 240 243 249 249 249 248 249 256 267 271 267 263 260 260 263 265 267 269 272 272 271 272 276 279 280 284 287 290 297 306 311 307 298 284
232 230 233 232 229 229 233 229 231 231 226 225 226 228 231 233 233 237 243 252 252 252 252 252 252 252 258 264 267 267 266 263 261 261 262 266 269 270 273 272 272 272 273 275 277 282 284 287 291 294 297 305 305 296